Regional Weather Roundup
Issued by NWS

Home | Current Version | Previous Version | Text Only | Print | Product List | Glossary Off
Versions: 1 2 3 4 5 6 7 8 9 10 11 12 13 14 15 16 17 18 19 20 21 22 23 24 25 26 27

000
ASUS45 KBOU 210507
RWRCO

WEATHER ROUNDUP FOR COLORADO
NATIONAL WEATHER SERVICE DENVER/BOULDER CO
1000 PM MST MON FEB 20 2017

NOTE: "FAIR" INDICATES FEW OR NO CLOUDS BELOW 12000 FEET WITH NO
SIGNIFICANT WEATHER AND/OR OBSTRUCTIONS TO VISIBILITY.

COZ001>005-013-030-031-210600-
...NORTHWEST COLORADO...

CITY           SKY/WX    TMP DP  RH WIND       PRES   REMARKS
CRAIG          FAIR      32  27  81 CALM      30.17R
HAYDEN         CLOUDY    34  25  69 CALM      30.16R
MEEKER         FAIR      34  29  82 E3        30.18R
MOUNT WERNER   NOT AVBL
STEAMBOAT SPGS CLOUDY    33  27  80 CALM      30.16R
WALDEN         NOT AVBL
$$

COZ006>008-011-210600-
...WEST CENTRAL VALLEYS...

CITY           SKY/WX    TMP DP  RH WIND       PRES   REMARKS
GRAND JUNCTION FAIR      39  37  92 E6        30.21R
MONTROSE       FAIR      39  31  72 SE6       30.27R
EAGLE          CLEAR     34  27  75 CALM      30.22R
RIFLE          FAIR      37  32  82 S3        30.20R
DELTA          FAIR      42  34  72 CALM      30.26R
NUCLA          FAIR      43  30  61 SE6       30.32S
$$

COZ017>023-064>068-210600-
...SOUTHWEST COLORADO...

CITY           SKY/WX    TMP DP  RH WIND       PRES   REMARKS
DURANGO        FAIR      33  27  78 N5        30.33R WCI  29
CORTEZ         CLOUDY    37  34  89 NE7       30.32S
PAGOSA SPRINGS FAIR      31  29  92 CALM      30.36R
TELLURIDE      FAIR      36  18  47 SE5       30.34R
WOLF CREEK PAS SNOW      21  21 100 S17G23    30.42S VSB 1/2 WCI   7
$$

COZ009-010-012-014-032>034-037-058>063-210600-
...CENTRAL COLORADO...

CITY           SKY/WX    TMP DP  RH WIND       PRES   REMARKS
ASPEN          FAIR      33  22  63 S7        30.20R WCI  27
BUENA VISTA    FAIR      33  17  53 W5        30.22R WCI  28
COPPER MTN     CLOUDY    32   3  29 SW9       30.31S WCI  24
BERTHOUD PASS  MOCLDY    23  14  68 W26G38    30.26S WCI   6
COTTONWOOD PAS FAIR      37   7  28 NW6       30.26F
GUNNISON       FAIR      25  21  85 S3        30.31R
KREMMLING      FAIR      37  27  65 E10       30.19S
LEADVILLE      FAIR      25  11  55 N3        30.25R
MONARCH PASS   FAIR      25  12  58 W25       30.44S WCI   9
SALIDA         FAIR      41  18  39 W6        30.28F
SUNLIGHT       NOT AVBL
WILKERSON PASS FAIR      30   5  34 SW20G31   30.28R WCI  18
$$

COZ069>075-210600-
...SAN LUIS VALLEY/SANGRE DE CRISTO MOUNTAINS...

CITY           SKY/WX    TMP DP  RH WIND       PRES   REMARKS
ALAMOSA        FAIR      27  23  85 CALM      30.26S
LA VETA PASS   FAIR      32  14  47 NE36G43   30.27R WCI  16
SAGUACHE       FAIR      30  21  69 N8        30.28R WCI  23
$$

COZ035-036-038>040-210600-
...NORTHERN COLORADO FRONT RANGE...

CITY           SKY/WX    TMP DP  RH WIND       PRES   REMARKS
DENVER INTL AP FAIR      46  13  26 S20       29.99F
DMNS CITY PARK   N/A     46  13  26 E10       30.00F
AURORA         PTCLDY    46  13  25 S15       30.00F
FRONT RANGE AP NOT AVBL
ERIE MUNI ARPT FAIR      44  14  29 SW8       29.99F
BOULDER MUN AP FAIR      46  16  29 NW7       29.98F
CENTENNIAL     FAIR      49  11  21 S10G18    30.02F
BROOMFIELD     PTCLDY    45  12  26 W8        30.01F
FORT COLLINS   FAIR      44  16  32 VRB3      30.00S
LONGMONT       FAIR      40  19  43 NW5       30.02S
$$

COZ041-046-047-076>085-087-088-210600-
...PIKES PEAK/PALMER DIVIDE AND SOUTHERN FOOTHILLS...

CITY           SKY/WX    TMP DP  RH WIND       PRES   REMARKS
COLO. SPRINGS  FAIR      36   4  26 N7        30.12S
A. F. ACADEMY  FAIR      32   6  33 CALM      30.11S
SCHRIEVER AFB  FAIR      41   4  21 SE6       30.11S
ELLICOTT       FAIR     N/A N/A N/A S10       30.09R
FALCON         FAIR      38   3  22 SW7       30.14S
FORT CARSON    FAIR      43   8  23 N6        30.09S
LIMON          FAIR      21  11  65 CALM      30.06S
MONUMENT HILL  FAIR      36   9  32 SW13G21   30.12R
TRINIDAD       FAIR      39  10  30 CALM      30.12R
$$

COZ042>045-048>051-090-091-210600-
...NORTHEAST COLORADO...

CITY           SKY/WX    TMP DP  RH WIND       PRES   REMARKS
GREELEY ARPT   FAIR      35  19  52 NE5       30.00  WCI  31
AKRON          FAIR      41  15  35 S10       30.00S
BURLINGTON     FAIR      39  13  34 S14       30.03F
WRAY           NOT AVBL
STERLING       FAIR      32  19  59 SW7       29.98R WCI  26
HOLYOKE        FAIR      36  16  44 SW8       29.99S
FORT MORGAN    FAIR      39  15  38 SW8       30.02R
$$

COZ086-089-092>099-210600-
...SOUTHEAST COLORADO...

CITY           SKY/WX    TMP DP  RH WIND       PRES   REMARKS
PUEBLO         FAIR      41   9  26 NW3       30.06S
LA JUNTA       FAIR      45  12  26 S7        30.06S
LAMAR          FAIR      32  12  43 NW3       30.05R
SPRINGFIELD      N/A     26  13  57 SW8       30.09S WCI  18
$$




USA.gov is the U.S. government's official web portal to all federal, state and local government web resources and services.